Dewpoint
-9 -7 -11 -17 -23 -25 -28 -26 -27 -30 -28 -24 -32 -34 -31 -27 -26 -27 -28 -29 -23 -19 -17 -14 -10 -8 -9 -11 -14 -14 -13 -16 -17 -18 -16 -18 -19 -19 -18 -18 -18 -14 -11 -9 -7 -5 -2
-10 -7 -16 -23 -25 -28 -27 -26 -30 -31 -29 -32 -33 -33 -28 -26 -25 -27 -28 -24 -20 -17 -15 -9 -12 -13 -13 -15 -16 -15 -15 -18 -20 -18 -16 -17 -19 -18 -18 -17 -17 -18 -16 -15 -15 -13 -12
-9 -12 -21 -27 -28 -28 -29 -31 -31 -31 -34 -35 -34 -28 -25 -25 -25 -28 -28 -21 -18 -15 -12 -15 -12 -6 -18 -16 -17 -17 -18 -18 -19 -20 -19 -19 -17 -15 -18 -19 -21 -19 -16 -15 -15 -15 -12
-9 -17 -26 -27 -28 -29 -32 -31 -32 -33 -35 -35 -33 -25 -22 -25 -24 -29 -24 -19 -17 -11 -8 -9 -15 -13 -16 -17 -16 -16 -16 -17 -19 -19 -20 -19 -19 -18 -20 -20 -19 -17 -17 -14 -19 -18 -14
-15 -25 -28 -29 -31 -32 -31 -32 -31 -34 -36 -35 -33 -25 -23 -26 -24 -30 -21 -19 -15 -17 -15 -18 -13 -17 -21 -18 -16 -15 -18 -16 -17 -17 -17 -19 -18 -17 -19 -17 -16 -16 -13 -16 -17 -20 -19
-19 -27 -27 -31 -32 -33 -32 -31 -33 -34 -36 -36 -34 -25 -23 -27 -24 -29 -22 -20 -15 -18 -13 -15 -21 -18 -21 -17 -16 -18 -17 -17 -17 -17 -19 -19 -17 -16 -19 -19 -13 -16 -15 -16 -16 -19 -19
-21 -28 -30 -31 -34 -33 -31 -31 -32 -34 -36 -37 -36 -27 -24 -28 -26 -28 -25 -14 -13 -13 -13 -17 -18 -20 -19 -16 -14 -19 -17 -18 -17 -19 -17 -18 -16 -16 -20 -20 -18 -15 -13 -12 -15 -17 -16
-20 -29 -31 -31 -34 -32 -31 -32 -32 -35 -36 -37 -34 -24 -25 -28 -28 -28 -26 -9 -12 -10 -16 -13 -14 -18 -18 -15 -16 -19 -17 -16 -16 -15 -15 -15 -15 -18 -19 -18 -16 -15 -11 -10 -12 -15 -14
-24 -31 -32 -31 -33 -32 -32 -32 -33 -35 -36 -37 -33 -22 -24 -27 -24 -19 -19 -15 -15 -13 -12 -17 -16 -17 -16 -15 -15 -18 -16 -15 -15 -13 -13 -11 -16 -18 -17 -15 -14 -14 -11 -11 -9 -13 -14
-27 -32 -30 -32 -32 -31 -32 -33 -34 -35 -36 -37 -33 -23 -24 -25 -13 -15 -12 -12 -15 -13 -10 -17 -18 -17 -16 -17 -16 -19 -16 -15 -13 -12 -13 -12 -16 -15 -15 -14 -15 -9 -13 -12 -10 -7 -3
-28 -32 -30 -32 -32 -31 -32 -33 -34 -35 -37 -37 -33 -25 -24 -26 -21 -14 -18 -11 -13 -9 0 -17 -18 -17 -17 -18 -18 -18 -16 -15 -12 -12 -12 -10 -13 -14 -13 -13 -13 -9 -12 -9 -8 -5 -3
-27 -32 -32 -32 -31 -32 -32 -33 -34 -35 -36 -37 -33 -22 -24 -22 -13 -19 -17 -9 -9 -3 -4 -17 -18 -17 -16 -18 -17 -18 -17 -15 -14 -12 -13 -12 -15 -14 -12 -11 -12 -13 -9 -10 -12 -10 -4
-28 -30 -32 -32 -31 -31 -32 -34 -34 -35 -37 -37 -28 -22 -23 -23 -17 -20 -18 -6 -6 -8 -22 -15 -14 -15 -16 -17 -16 -15 -15 -9 -9 -8 -9 -12 -13 -14 -12 -10 -11 -8 -5 -5 -8 -3 -2
-30 -31 -32 -32 -32 -32 -32 -34 -34 -36 -37 -36 -28 -21 -23 -23 -21 -20 -18 -15 -8 -18 -16 -16 -14 -14 -16 -16 -15 -14 -14 -14 -14 -10 -9 -9 -8 -13 -14 -10 -4 -8 -5 -4 -6 -6 -8
-31 -31 -32 -31 -32 -33 -33 -34 -34 -35 -37 -36 -26 -20 -13 -23 -24 -20 -13 -7 -12 -12 -12 -12 -12 -15 -17 -17 -13 -13 -13 -11 -11 -10 -6 -7 -11 -14 -15 -13 -9 -8 -5 -9 -5 -8 -7
-31 -32 -32 -31 -32 -32 -33 -34 -34 -36 -37 -34 -22 -14 -17 -26 -23 -13 -9 -12 -12 -12 -12 -12 -10 -13 -10 -11 -11 -11 -12 -9 -11 -12 -12 -8 -6 -14 -13 -10 -10 -10 -9 -6 -8 -5 -6
-30 -32 -32 -32 -32 -32 -33 -33 -33 -36 -36 -31 -20 -15 -24 -27 -17 -14 -7 -9 -10 -12 -11 -11 -11 -10 -9 -11 -11 -11 -10 -12 -10 -11 -13 -8 -6 -10 -12 -10 -5 -7 -7 -8 -8 -5 -5
-29 -32 -32 -32 -32 -32 -32 -33 -33 -36 -35 -29 -14 -15 -27 -18 -14 -14 -12 -11 -11 -11 -12 -12 -11 -8 -9 -10 -10 -11 -11 -12 -14 -13 -9 -8 -5 -5 -9 -8 -7 -8 -7 -6 -7 -7 -6
-28 -32 -31 -31 -31 -32 -32 -32 -33 -36 -34 -27 -10 -15 -24 -15 -12 -14 -11 -13 -12 -12 -12 -11 -11 -12 -12 -11 -10 -12 -13 -14 -14 -13 -10 -7 -9 -6 -10 -6 -6 -7 -8 -8 -9 -9 -6
-28 -31 -30 -30 -31 -32 -32 -32 -33 -35 -34 -29 -8 -5 -13 -11 -9 -7 -7 -15 -13 -13 -12 -11 -12 -12 -13 -12 -14 -11 -13 -14 -14 -14 -10 -11 -9 -6 -5 -5 -5 -6 -8 -7 -8 -8 -7
-29 -31 -29 -30 -30 -31 -31 -31 -32 -34 -33 -25 -11 -9 -11 -10 -11 -9 -8 -9 -12 -13 -12 -12 -13 -13 -11 -9 -11 -12 -13 -13 -14 -13 -13 -9 -8 -11 -11 -8 -5 -6 -8 -7 -7 -7 -8
-28 -30 -29 -29 -29 -30 -30 -30 -32 -33 -30 -31 -5 -4 -7 -9 -8 -9 -9 -11 -12 -10 -10 -12 -12 -12 -12 -10 -12 -9 -11 -11 -11 -13 -12 -12 -8 -9 -7 -5 -4 -4 -9 -9 -9 -8 -9
-27 -29 -28 -27 -28 -29 -28 -29 -31 -32 -33 -27 -19 -16 -5 -9 -10 -9 -13 -11 -10 -12 -12 -13 -12 -11 -11 -14 -12 -12 -11 -11 -11 -10 -11 -10 -10 -7 -8 -11 -7 -4 -8 -9 -8 -8 -9
-25 -29 -26 -26 -28 -28 -27 -28 -29 -30 -29 -25 -21 -12 -5 -10 -13 -15 -11 -10 -9 -11 -10 -11 -12 -13 -13 -12 -11 -13 -13 -13 -12 -12 -12 -10 -11 -10 -7 -9 -2 -6 -11 -9 -8 -8 -9
-22 -27 -25 -24 -26 -26 -25 -26 -28 -28 -26 -19 -19 -10 -7 -9 -13 -13 -11 -11 -10 -11 -11 -11 -13 -12 -11 -11 -10 -11 -15 -16 -15 -16 -15 -15 -13 -8 -8 -8 -5 -6 -13 -10 -8 -9 -9
-18 -25 -24 -22 -23 -24 -24 -25 -25 -23 -17 -14 -14 -14 -12 -6 -13 -11 -11 -9 -10 -9 -12 -11 -11 -10 -11 -11 -11 -10 -11 -12 -13 -14 -15 -15 -14 -11 -10 -7 -5 -9 -15 -14 -12 -7 -11
-5 -20 -21 -19 -16 -22 -21 -22 -22 -21 -12 -10 -10 -12 -6 -6 -9 -9 -10 -11 -10 -9 -9 -10 -8 -12 -11 -11 -11 -11 -12 -15 -11 -12 -11 -11 -11 -11 -11 -10 -9 -15 -16 -15 -11 -9 -10
1 -11 -16 -9 -14 -20 -20 -19 -20 -19 -8 -7 -8 -8 -6 -5 -8 -9 -8 -8 -8 -8 -9 -9 -8 -10 -11 -10 -10 -11 -11 -11 -10 -14 -10 -9 -9 -11 -12 -10 -9 -16 -16 -12 -11 -11 -10
2 -4 -11 -5 -12 -18 -17 -19 -19 -17 -7 -6 -6 -8 -7 -6 -6 -10 -8 -9 -8 -7 -7 -7 -7 -9 -10 -10 -11 -10 -11 -13 -11 -11 -12 -8 -10 -9 -11 -13 -15 -17 -15 -14 -13 -11 -11
Wind_Speed
5 6 7 10 11 12 13 15 16 17 18 19 21 22 22 19 17 19 20 17 13 11 9 8 6 5 8 9 11 17 19 20 18 19 16 18 19 16 14 18 27 26 28 36 38 34 30
5 4 8 10 11 11 13 15 17 18 19 20 22 22 21 19 18 22 21 16 11 7 8 9 13 12 9 14 13 16 17 21 21 19 16 17 14 19 20 18 18 24 33 33 35 37 38
4 5 7 9 9 11 14 15 16 18 19 21 22 21 22 21 18 22 19 13 9 7 7 9 4 3 22 14 12 15 18 20 20 17 18 17 17 13 25 24 18 24 25 24 25 32 28
3 5 6 7 9 13 14 14 17 19 20 21 22 20 21 22 17 22 16 9 8 8 6 5 4 6 6 12 14 15 20 23 22 17 19 19 16 21 18 20 23 22 19 17 18 18 18
3 5 6 7 10 11 13 15 17 19 21 22 21 20 20 23 17 22 12 8 6 11 12 10 6 3 4 11 18 18 24 25 26 16 15 10 15 16 17 15 13 19 18 25 26 24 26
4 5 6 7 9 10 12 15 17 19 21 22 21 19 20 23 18 24 10 10 9 7 4 4 13 3 13 20 15 20 22 26 15 17 13 13 9 11 9 11 14 22 23 24 26 26 25
2 4 5 6 7 9 12 15 17 20 21 22 22 19 20 22 16 24 15 2 4 2 19 10 9 8 15 20 8 22 27 24 15 13 13 13 9 9 15 15 18 20 23 26 27 25 24
1 3 5 5 7 9 12 14 17 20 21 22 20 17 20 22 13 22 15 4 1 4 7 6 5 8 14 15 9 22 28 16 16 14 18 10 4 12 16 18 18 20 23 24 26 23 21
1 3 4 5 6 9 11 14 17 19 21 21 19 16 19 21 10 21 18 7 4 8 3 3 4 8 13 14 7 20 26 18 12 14 17 11 9 15 16 19 17 17 20 22 26 26 26
0 2 3 3 6 9 11 14 17 19 20 21 19 17 18 18 9 17 9 7 5 2 4 4 5 5 14 15 3 12 21 15 9 13 14 8 15 17 15 17 15 18 22 25 27 22 19
1 1 2 4 7 9 12 14 16 18 20 21 20 16 17 18 12 12 13 4 3 2 3 5 3 6 16 8 14 8 16 15 13 16 12 13 17 13 13 14 18 22 24 26 31 24 20
2 1 1 4 7 9 11 13 16 18 19 21 19 14 18 18 12 20 11 3 1 4 4 3 4 10 17 9 15 12 13 14 5 17 10 17 9 5 12 18 21 20 24 28 19 7 6
3 2 1 4 6 9 11 14 16 17 20 20 15 13 18 19 14 17 8 2 4 3 7 8 9 14 13 14 12 13 15 10 11 12 19 17 8 4 2 19 17 22 19 11 6 3 4
4 3 1 4 6 9 11 13 15 17 19 19 11 9 18 21 16 12 5 4 4 3 5 9 12 15 6 12 10 14 12 10 10 13 16 12 8 8 18 15 12 16 16 8 8 8 14
5 3 1 3 6 9 11 13 15 18 19 18 8 6 12 20 15 8 4 5 4 5 6 11 15 6 6 8 10 9 12 5 7 11 10 9 8 23 10 9 14 12 15 21 9 15 10
6 4 3 4 6 8 10 13 15 17 19 17 5 2 13 17 11 9 4 4 2 4 9 8 6 5 9 13 11 15 7 2 8 13 18 5 12 11 17 4 7 12 13 10 6 6 12
7 6 4 3 5 7 10 13 15 16 18 13 4 1 16 11 10 8 4 4 3 3 7 6 6 7 7 13 16 10 5 7 3 16 21 13 5 13 16 13 10 12 12 7 7 5 6
9 8 5 3 5 6 9 12 14 16 17 10 2 1 17 9 5 5 4 3 5 5 4 4 5 3 7 13 10 8 6 8 16 22 13 5 6 13 24 8 5 16 15 9 5 10 6
11 9 6 3 4 6 8 11 14 16 18 10 3 3 11 9 4 4 3 3 2 6 6 4 4 4 9 11 9 9 8 13 14 20 9 9 5 11 10 4 3 6 17 14 10 9 7
12 10 6 5 3 5 7 9 12 15 16 8 3 2 6 12 7 3 2 5 5 4 5 5 8 7 9 15 7 10 19 13 24 19 11 14 9 11 10 17 15 9 24 16 11 6 11
13 11 8 6 3 4 6 8 11 13 13 7 5 4 3 3 6 5 1 1 6 7 4 5 3 5 11 6 19 6 20 21 20 4 17 4 7 15 20 17 5 13 19 18 16 13 10
15 13 10 6 4 3 5 7 9 12 10 11 3 1 3 3 1 1 1 2 6 6 3 6 5 13 14 13 14 20 20 18 9 9 13 8 8 17 15 3 7 1 18 18 15 11 11
16 14 11 8 5 3 4 6 8 11 11 6 4 4 4 2 1 2 2 3 4 9 4 7 11 12 15 13 23 29 26 21 17 14 10 8 11 12 5 15 4 2 14 17 16 9 17
18 16 13 9 6 3 3 5 7 8 10 9 6 4 1 2 0 2 1 3 7 7 9 11 12 10 14 27 28 14 8 8 5 4 7 11 15 7 9 15 1 6 13 15 15 7 20
19 18 15 11 7 3 2 3 4 6 8 9 8 4 2 0 1 2 2 4 8 7 7 8 8 14 17 17 6 7 1 2 1 4 3 12 10 6 6 10 3 3 17 21 15 3 22
19 19 17 13 7 5 3 2 2 3 5 7 8 7 3 0 2 1 2 2 4 6 4 3 10 10 11 5 4 4 4 6 4 9 8 13 6 7 9 5 5 10 23 35 17 4 30
22 21 19 15 10 8 5 3 1 1 2 4 5 5 3 0 1 2 1 3 3 4 4 6 9 8 10 6 5 4 4 6 5 9 11 9 7 8 10 4 3 16 27 29 8 11 34
24 25 22 18 13 9 7 5 3 2 2 2 4 3 0 1 2 3 3 2 3 3 4 9 5 4 5 6 4 4 4 5 4 12 3 4 6 6 7 5 5 30 12 9 12 25 27
26 28 28 22 16 12 9 6 5 4 4 4 4 4 4 1 3 4 6 8 9 7 4 2 2 3 6 3 3 3 5 3 9 5 5 0 3 4 4 6 19 20 10 17 21 27 28
Wind_Direction
74 42 34 29 29 28 23 18 17 17 12 6 2 360 5 6 4 357 358 0 4 3 19 40 62 77 74 65 16 342 343 344 344 347 341 335 319 319 283 299 303 290 285 282 283 281 271
64 43 29 28 25 21 20 18 15 14 11 5 0 1 3 12 5 1 2 4 11 19 41 72 75 69 81 74 357 349 348 352 347 345 333 333 323 313 294 284 284 292 295 289 289 288 286
67 39 34 28 19 15 18 16 11 11 10 3 1 3 1 10 9 2 2 20 37 46 98 107 81 26 52 44 350 357 352 353 346 335 326 327 317 309 308 300 294 307 303 295 287 285 283
60 35 38 25 13 17 14 12 9 9 7 4 3 2 0 3 10 4 6 36 42 79 86 93 71 54 90 16 7 352 350 345 338 330 328 325 320 308 293 303 297 287 288 281 280 304 304
38 39 29 20 14 15 12 8 7 6 5 4 2 358 359 359 7 12 12 32 58 108 68 47 22 103 60 348 360 355 348 336 330 328 323 318 318 308 293 287 304 306 308 311 305 302 300
34 29 22 19 14 15 8 6 6 4 4 3 2 356 359 357 4 11 9 64 104 355 353 29 25 114 16 345 340 350 345 338 343 330 333 338 323 290 315 336 308 305 298 297 292 292 290
27 22 29 20 19 13 10 6 2 4 3 2 359 354 356 357 358 5 14 307 295 10 47 71 61 49 337 339 341 350 350 343 347 356 355 335 301 353 330 321 306 297 288 288 290 294 288
307 22 30 19 21 11 8 3 1 2 1 0 359 358 354 354 357 5 21 56 95 159 72 55 42 12 352 347 330 353 353 355 343 352 350 335 21 344 319 303 296 292 289 289 291 296 289
300 15 27 20 15 7 5 3 1 359 357 357 359 3 357 352 1 4 28 33 121 132 269 38 20 349 349 343 331 354 358 345 347 344 346 314 322 327 319 316 308 303 299 300 298 301 290
264 349 35 22 7 6 2 3 360 356 353 354 356 6 0 5 21 357 4 18 159 141 242 46 2 11 348 337 283 356 357 351 326 336 330 293 316 317 314 311 332 309 314 305 299 298 289
233 23 42 9 7 359 0 1 358 353 352 350 358 360 3 10 0 7 350 15 147 73 282 23 13 348 345 15 326 348 355 348 326 332 300 316 310 319 311 331 327 308 312 296 291 281 275
238 229 17 7 0 355 357 358 355 353 351 353 351 358 3 5 11 357 357 64 8 243 11 18 348 346 343 341 346 331 341 6 337 319 285 311 278 283 306 324 314 321 317 305 284 281 255
226 213 343 359 353 351 355 356 353 351 354 351 349 1 5 3 355 351 357 352 270 2 12 347 331 334 330 339 329 352 342 40 19 342 343 326 304 271 328 328 316 336 330 337 355 253 303
217 230 334 344 347 351 355 353 351 353 352 347 343 356 2 1 356 353 3 247 357 52 348 341 331 321 333 353 340 335 345 357 24 353 320 343 331 20 331 350 334 333 348 329 312 324 309
213 219 276 326 343 352 352 351 352 352 348 344 341 336 357 357 0 11 295 40 4 0 337 325 319 319 346 345 337 339 349 339 353 357 359 323 301 327 349 351 25 336 349 310 268 277 287
212 213 249 314 339 349 349 352 355 351 347 345 357 339 349 360 10 27 36 79 354 340 323 323 330 351 326 335 333 336 334 38 342 349 345 305 297 299 342 2 27 354 339 333 326 309 325
209 213 239 300 336 343 351 355 355 352 350 352 38 295 352 4 47 48 54 45 335 332 325 321 327 306 319 329 327 326 301 311 30 329 335 313 270 289 312 339 19 11 355 343 289 273 327
205 210 230 290 318 344 356 354 355 356 359 7 34 268 4 45 33 44 54 13 335 304 310 297 295 296 298 323 313 318 308 332 334 336 327 343 293 301 305 102 94 42 358 346 338 336 331
203 211 225 260 304 348 356 356 359 3 6 15 48 18 20 41 39 53 90 355 311 326 330 325 308 318 312 309 316 303 329 320 328 338 336 325 302 313 323 153 305 26 17 350 324 326 24
205 211 225 251 303 344 355 1 3 10 13 31 35 20 28 47 64 45 14 13 350 325 299 320 292 297 323 318 299 290 303 328 324 319 332 320 280 282 300 306 307 5 14 355 345 357 320
211 211 223 242 281 331 358 3 9 16 21 49 55 65 47 18 51 64 47 356 332 352 332 324 286 293 332 307 313 279 320 326 330 26 335 11 290 317 317 299 146 46 18 351 354 21 360
210 210 220 234 267 326 356 8 15 21 31 53 72 72 55 100 96 129 113 355 326 337 294 325 304 317 312 304 290 306 320 319 316 323 333 335 294 323 307 294 291 146 12 355 354 10 347
210 211 218 225 249 307 344 5 20 25 35 68 79 99 134 155 117 296 37 350 313 325 292 284 311 311 309 318 311 297 292 284 273 294 309 310 325 322 295 331 292 145 6 344 339 17 7
211 212 215 220 233 263 329 354 15 31 40 60 72 81 108 120 270 357 335 310 296 304 290 298 311 307 305 312 311 286 258 262 258 264 277 304 325 301 303 320 74 135 22 342 337 47 10
212 211 214 217 218 234 286 338 360 18 32 40 52 60 85 45 3 216 285 305 302 294 284 297 319 313 316 319 322 330 245 262 332 2 312 338 317 318 321 314 112 219 353 345 343 336 13
217 211 214 214 212 221 235 269 345 0 22 23 33 44 66 63 119 150 305 320 325 333 305 291 326 324 340 290 309 333 356 326 331 337 27 338 304 313 325 308 354 11 340 333 313 262 3
215 210 211 206 209 219 217 223 228 304 357 10 9 17 60 34 207 164 304 337 315 305 289 303 341 336 354 346 351 354 335 340 325 327 344 340 344 348 343 328 99 3 349 331 29 325 332
219 206 208 205 208 213 210 209 214 216 245 301 321 332 19 227 255 214 212 235 276 277 309 348 293 15 350 10 350 2 317 2 290 328 16 315 327 352 332 342 351 5 354 23 326 322 326
220 207 206 206 195 208 208 211 212 209 223 250 272 287 296 231 231 248 247 247 246 251 279 310 351 336 7 334 359 310 330 303 330 318 142 244 10 306 313 315 329 342 7 342 338 330 331
Height
1553 1552 1551 1550 1549 1547 1545 1543 1541 1539 1535 1532 1529 1524 1521 1518 1514 1510 1507 1503 1500 1497 1496 1494 1494 1494 1495 1497 1502 1499 1495 1493 1491 1487 1485 1483 1478 1473 1467 1462 1459 1454 1443 1441 1440 1437 1438
1554 1553 1552 1551 1550 1548 1546 1544 1542 1539 1535 1532 1528 1524 1521 1518 1514 1510 1506 1502 1500 1498 1497 1497 1496 1496 1498 1500 1504 1499 1495 1492 1490 1486 1483 1481 1477 1475 1468 1463 1460 1453 1449 1444 1441 1438 1436
1555 1554 1553 1552 1550 1548 1546 1544 1541 1539 1535 1532 1528 1524 1520 1518 1514 1509 1505 1503 1501 1499 1498 1498 1498 1499 1499 1506 1503 1499 1496 1493 1490 1486 1482 1480 1478 1475 1471 1464 1457 1453 1448 1443 1440 1435 1429
1555 1554 1553 1552 1550 1549 1547 1544 1542 1539 1536 1532 1528 1524 1520 1517 1515 1510 1506 1504 1502 1500 1499 1498 1498 1499 1502 1504 1502 1499 1495 1490 1486 1483 1481 1479 1476 1473 1468 1463 1458 1452 1447 1440 1433 1430 1431
1556 1555 1554 1552 1551 1549 1547 1544 1542 1539 1536 1532 1528 1525 1521 1517 1515 1512 1507 1505 1504 1502 1500 1499 1500 1500 1504 1503 1499 1497 1494 1487 1484 1482 1478 1476 1475 1470 1466 1458 1455 1451 1444 1440 1436 1436 1432
1556 1555 1554 1553 1552 1550 1548 1545 1543 1539 1536 1532 1528 1525 1521 1518 1514 1512 1508 1507 1505 1505 1502 1501 1502 1504 1504 1504 1500 1498 1493 1487 1483 1479 1474 1473 1471 1464 1456 1458 1464 1457 1452 1446 1439 1435 1431
1556 1556 1555 1554 1552 1551 1548 1546 1543 1540 1536 1532 1529 1525 1521 1518 1514 1511 1508 1508 1510 1508 1506 1511 1512 1511 1510 1506 1500 1498 1491 1486 1483 1477 1474 1470 1466 1462 1462 1463 1462 1458 1453 1446 1433 1429 1425
1556 1556 1555 1554 1553 1551 1549 1546 1543 1540 1537 1533 1529 1525 1521 1518 1515 1512 1509 1508 1509 1511 1513 1514 1512 1512 1510 1506 1501 1498 1494 1489 1483 1477 1476 1468 1462 1465 1465 1461 1457 1451 1445 1438 1424 1422 1418
1556 1556 1555 1554 1553 1552 1550 1547 1544 1541 1537 1533 1530 1526 1522 1518 1514 1512 1511 1511 1510 1511 1511 1514 1513 1511 1509 1506 1503 1499 1496 1490 1484 1480 1478 1474 1467 1466 1462 1456 1449 1444 1439 1432 1425 1414 1409
1556 1555 1555 1554 1553 1552 1550 1548 1545 1541 1537 1533 1529 1526 1523 1518 1517 1515 1513 1512 1511 1511 1503 1513 1513 1512 1510 1505 1502 1501 1499 1497 1489 1483 1479 1470 1466 1463 1459 1452 1449 1444 1434 1429 1421 1416 1406
1555 1556 1555 1555 1554 1552 1550 1548 1545 1542 1538 1533 1529 1526 1523 1518 1520 1518 1517 1513 1513 1513 1486 1513 1513 1512 1510 1509 1507 1500 1500 1496 1491 1486 1485 1471 1464 1461 1457 1453 1451 1442 1429 1422 1411 1403 1403
1555 1555 1555 1555 1554 1552 1550 1548 1545 1542 1538 1533 1530 1527 1523 1520 1519 1517 1514 1513 1514 1508 1492 1511 1515 1513 1510 1507 1506 1504 1501 1499 1492 1483 1476 1468 1463 1464 1460 1455 1447 1437 1425 1406 1385 1386 1392
1555 1555 1555 1554 1554 1552 1550 1548 1545 1542 1537 1534 1530 1528 1523 1521 1520 1516 1514 1515 1506 1490 1514 1516 1518 1514 1513 1508 1505 1504 1498 1501 1499 1490 1478 1462 1456 1458 1460 1452 1443 1440 1426 1408 1396 1387 1380
1554 1555 1555 1554 1553 1552 1550 1548 1545 1541 1537 1534 1531 1530 1526 1522 1519 1516 1514 1512 1503 1520 1522 1524 1521 1515 1512 1512 1508 1503 1498 1498 1499 1501 1485 1476 1461 1457 1457 1455 1454 1441 1442 1441 1429 1406 1395
1553 1555 1554 1554 1553 1552 1550 1548 1544 1541 1537 1533 1531 1530 1528 1523 1520 1517 1517 1514 1529 1533 1535 1529 1520 1515 1510 1509 1512 1504 1499 1504 1504 1504 1504 1489 1466 1458 1454 1455 1456 1447 1444 1438 1431 1410 1396
1552 1554 1554 1553 1552 1551 1550 1547 1544 1541 1537 1533 1531 1530 1528 1524 1521 1519 1519 1531 1534 1539 1538 1533 1528 1524 1523 1517 1514 1509 1502 1509 1506 1505 1503 1495 1482 1457 1454 1455 1456 1456 1451 1438 1429 1415 1402
1551 1552 1553 1553 1552 1551 1549 1547 1544 1541 1537 1532 1531 1532 1530 1525 1523 1524 1528 1538 1539 1540 1541 1537 1531 1529 1528 1522 1518 1511 1510 1504 1508 1503 1500 1493 1490 1463 1453 1451 1463 1457 1454 1447 1435 1424 1417
1549 1551 1552 1552 1551 1550 1549 1547 1544 1541 1536 1532 1533 1532 1531 1527 1529 1531 1536 1541 1544 1541 1540 1538 1535 1534 1531 1528 1520 1514 1510 1509 1509 1506 1500 1495 1488 1471 1458 1456 1462 1462 1465 1457 1447 1436 1427
1548 1550 1551 1551 1550 1550 1549 1547 1544 1540 1536 1533 1536 1536 1533 1529 1531 1534 1542 1542 1543 1541 1539 1537 1535 1534 1533 1528 1526 1513 1510 1510 1507 1505 1502 1497 1482 1473 1450 1461 1459 1461 1466 1462 1452 1440 1438
1546 1548 1549 1550 1550 1549 1548 1546 1543 1540 1537 1535 1537 1536 1538 1537 1542 1543 1544 1541 1541 1540 1540 1539 1537 1534 1530 1527 1522 1516 1510 1507 1506 1503 1502 1497 1490 1486 1478 1471 1468 1469 1468 1464 1459 1454 1446
1544 1546 1548 1549 1549 1549 1548 1546 1543 1540 1538 1537 1539 1544 1544 1542 1542 1545 1546 1547 1542 1540 1540 1538 1534 1533 1534 1531 1522 1512 1510 1507 1504 1502 1500 1498 1492 1477 1473 1465 1466 1472 1475 1467 1462 1461 1455
1542 1544 1546 1547 1547 1547 1546 1545 1543 1540 1539 1538 1542 1544 1544 1547 1547 1544 1547 1544 1544 1544 1543 1537 1537 1534 1531 1527 1522 1514 1514 1511 1507 1503 1500 1495 1490 1480 1471 1459 1460 1463 1473 1471 1462 1460 1457
1539 1541 1544 1545 1546 1546 1545 1544 1543 1541 1539 1540 1542 1542 1543 1546 1546 1544 1544 1546 1547 1545 1541 1539 1537 1534 1528 1523 1521 1515 1513 1510 1508 1506 1501 1496 1489 1481 1461 1452 1450 1458 1479 1476 1467 1463 1460
1536 1539 1541 1543 1544 1544 1544 1543 1542 1542 1541 1542 1542 1542 1543 1542 1543 1544 1546 1548 1547 1545 1543 1539 1537 1534 1528 1522 1514 1506 1506 1506 1505 1505 1503 1497 1491 1481 1467 1448 1444 1474 1476 1476 1471 1468 1463
1533 1536 1538 1540 1542 1542 1542 1542 1542 1542 1542 1541 1542 1542 1543 1541 1543 1544 1545 1544 1544 1543 1541 1539 1537 1534 1529 1522 1513 1504 1494 1494 1497 1498 1499 1496 1492 1488 1474 1460 1460 1468 1473 1469 1470 1466 1464
1529 1533 1535 1537 1539 1540 1541 1542 1542 1542 1542 1542 1542 1542 1543 1544 1543 1545 1544 1545 1543 1540 1537 1538 1536 1533 1529 1521 1512 1511 1505 1510 1498 1499 1498 1495 1492 1486 1476 1468 1458 1485 1478 1470 1463 1457 1465
1525 1529 1532 1535 1537 1539 1539 1540 1541 1541 1542 1542 1542 1542 1543 1544 1544 1544 1543 1544 1544 1542 1541 1538 1538 1534 1531 1523 1516 1519 1512 1510 1508 1506 1506 1502 1495 1486 1480 1472 1474 1489 1483 1468 1469 1482 1474
1520 1524 1528 1531 1534 1537 1538 1538 1539 1540 1541 1542 1542 1541 1543 1542 1543 1541 1542 1543 1543 1544 1542 1540 1538 1536 1532 1527 1527 1526 1521 1520 1522 1511 1515 1516 1510 1491 1489 1482 1481 1490 1487 1489 1497 1489 1482
1514 1518 1522 1526 1531 1534 1535 1536 1537 1538 1539 1540 1540 1540 1540 1541 1541 1539 1540 1540 1542 1544 1544 1542 1543 1543 1540 1535 1532 1530 1525 1519 1517 1512 1518 1514 1523 1519 1511 1496 1498 1499 1501 1497 1494 1487 1478